Weather History for Wichita Jabara, KS

Change the Weather History Date:

Thursday, November 8, 2012

  Actual Average (KICT) Record (KICT)
Temperature  
Mean Temperature 58 °F 49 °F  
Max Temperature 73 °F 60 °F 86 °F (2006)
Min Temperature 43 °F 38 °F 16 °F (1991)
Degree Days  
Heating Degree Days 7 16  
Month to date heating degree days 115  
Since 1 July heating degree days 401  
Cooling Degree Days 0 0  
Month to date cooling degree days 0  
Year to date cooling degree days 1684  
Growing Degree Days 8 (Base 50)    
Moisture  
Dew Point 39 °F    
Average Humidity 48    
Maximum Humidity 67    
Minimum Humidity 33    
Precipitation  
Precipitation 0.00 in 0.06 in 2.31 in (1916)
Month to date precipitation 0.46  
Year to date precipitation 30.47  
Snow  
Snow 0.00 in 0.00 in 0.30 in (2011)
Month to date snowfall 0.1  
Since 1 July snowfall 0.2  
Since 1 September snowfall 0.2  
Snow Depth -    
Sea Level Pressure  
Sea Level Pressure 29.89 in    
Wind  
Wind Speed 13 mph (SSE)    
Max Wind Speed 25 mph    
Max Gust Speed 31 mph    
Visibility 10 miles    
Events      
T = Trace of Precipitation, MM = Missing Value Source: NWS Daily Summary

Daily Weather History Graph

Daily Weather History Graph

Search for Another Location

Airport:

Trip Planner

Search our weather history database for the weather conditions in past years. The results will help you decide how hot, cold, wet, or windy it might be!

Date:

Astronomy

Nov. 08, 2012 Rise Set
Actual Time 7:02 AM CST 5:22 PM CST
Civil Twilight 6:34 AM CST 5:50 PM CST
Nautical Twilight 6:03 AM CST 6:21 PM CST
Astronomical Twilight 5:32 AM CST 6:52 PM CST
Moon 1:04 AM CST (11/8) 1:58 PM CST (11/8)
Length of Visible Light 11h 15m
Length of Day
10h 20m
Waning Crescent, 32% of the Moon is Illuminated
Nov 8
Waning Crescent
Nov 13
New
Nov 20
First Quarter
Nov 28
Full
Dec 6
Last Quarter

Hourly Weather History & Observations

Time (CST) Temp. Windchill Dew Point Humidity Pressure Visibility Wind Dir Wind Speed Gust Speed Precip Events Conditions
12:54 AM 45.0 °F 40.6 °F 30.0 °F 56% 30.04 in 10.0 mi SE 8.1 mph - N/A   Clear
1:54 AM 43.0 °F 37.7 °F 28.9 °F 58% 30.03 in 10.0 mi SE 9.2 mph - N/A   Clear
2:54 AM 45.0 °F 40.1 °F 30.0 °F 56% 30.01 in 10.0 mi SSE 9.2 mph - N/A   Clear
3:54 AM 46.0 °F 40.2 °F 28.9 °F 51% 29.99 in 10.0 mi SSE 12.7 mph - N/A   Clear
4:54 AM 46.9 °F - 28.9 °F 50% 29.97 in 10.0 mi SSE 12.7 mph - N/A   Clear
5:54 AM 46.9 °F - 28.9 °F 50% 29.96 in 10.0 mi SSE 15.0 mph - N/A   Clear
6:54 AM 48.9 °F - 30.0 °F 48% 29.95 in 10.0 mi SSE 15.0 mph - N/A   Clear
7:54 AM 52.0 °F - 30.9 °F 45% 29.94 in 10.0 mi SSE 23.0 mph 29.9 mph N/A   Clear
8:54 AM 55.0 °F - 32.0 °F 42% 29.95 in 10.0 mi South 20.7 mph 31.1 mph N/A   Clear
9:54 AM 61.0 °F - 34.0 °F 36% 29.94 in 10.0 mi South 19.6 mph 28.8 mph N/A   Clear
10:54 AM 68.0 °F - 39.0 °F 35% 29.91 in 10.0 mi South 25.3 mph 31.1 mph N/A   Clear
11:54 AM 69.1 °F - 39.9 °F 35% 29.87 in 10.0 mi South 23.0 mph 31.1 mph N/A   Clear
12:54 PM 72.0 °F - 41.0 °F 33% 29.84 in 10.0 mi South 19.6 mph 27.6 mph N/A   Clear
1:54 PM 73.9 °F - 43.0 °F 33% 29.81 in 10.0 mi South 19.6 mph 27.6 mph N/A   Clear
2:54 PM 73.9 °F - 44.1 °F 34% 29.79 in 10.0 mi South 19.6 mph 29.9 mph N/A   Clear
3:54 PM 73.9 °F - 45.0 °F 35% 29.79 in 10.0 mi South 15.0 mph - N/A   Clear
4:54 PM 72.0 °F - 46.9 °F 41% 29.81 in 10.0 mi South 11.5 mph - N/A   Clear
5:54 PM 66.9 °F - 46.9 °F 49% 29.82 in 10.0 mi SSE 8.1 mph - N/A   Clear
6:54 PM 62.1 °F - 46.9 °F 58% 29.83 in 10.0 mi South 8.1 mph - N/A   Clear
7:54 PM 62.1 °F - 46.9 °F 58% 29.83 in 10.0 mi SSE 9.2 mph - N/A   Clear
8:54 PM 62.1 °F - 48.0 °F 60% 29.83 in 10.0 mi SSE 10.4 mph - N/A   Clear
9:54 PM 63.0 °F - 48.9 °F 60% 29.81 in 10.0 mi SSE 12.7 mph - N/A   Clear
10:54 PM 63.0 °F - 50.0 °F 63% 29.79 in 10.0 mi SSE 15.0 mph - N/A   Clear
11:54 PM 62.1 °F - 51.1 °F 67% 29.79 in 10.0 mi South 15.0 mph - N/A   Clear